Location: Hebron
(33.0265°N, 96.8636°W)
Time: 03:16:04
(UTC+00:00)

Okean 1 - Pass Details

Date: 04 July 2022
Orbit: 532 x 553 km, 82.5° (Epoch: 13 August)

Event Time Altitude Azimuth Distance (km) Brightness Sun altitude
Rises 08:52:02 0° 12° (NNE) 2,685 7.9 -24.9°
Reaches altitude 10° 08:54:43 10° 31° (NNE) 1,788 7.0 -24.6°
Maximum altitude 08:57:31 19° 77° (ENE) 1,322 5.8 -24.2°
Drops below altitude 10° 09:00:18 10° 123° (ESE) 1,776 6.0 -23.9°
Enters shadow 09:00:38 - 126° (SE) 1,875 6.0 -23.8°
